Simultaneous Nadir Overpasses (SNOs) Predictions

Prediction of SNOs between METOP-A and TERRA Satellite Orbit:

Table of predicted SNOs for the next 14.0 days since TLE Epoch: 3/16/2014
Index Date (METOP-A) Time (METOP-A) Lat,Lon (METOP-A) SZA (METOP-A ) Date (TERRA) Time (TERRA) Lat,Lon (TERRA) SZA (TERRA ) Distance(km) Time Diff (sec)
1 03/18/2014 06:28:17 81.36, 131.54 84.99 03/18/2014 06:28:20 81.36, 131.44 84.99 1.83 3
2 03/18/2014 07:18:57 -81.36, -60.75 94.98 03/18/2014 07:17:47 -81.36, -60.93 95.03 2.97 70
3 03/21/2014 02:02:37 81.35,-162.32 83.88 03/21/2014 02:02:51 81.36,-162.30 83.89 0.55 14
4 03/21/2014 02:53:17 -81.36, 5.42 96.09 03/21/2014 02:52:18 -81.36, 5.41 96.12 0.38 59
5 03/23/2014 21:36:56 81.35, -96.25 82.76 03/23/2014 21:37:30 81.34, -96.19 82.78 1.13 34
6 03/23/2014 22:27:36 -81.35, 71.52 97.21 03/23/2014 22:26:57 -81.35, 71.59 97.22 1.18 39
7 03/26/2014 17:11:15 81.35, -29.86 81.68 03/26/2014 17:12:18 81.35, -29.87 81.70 0.50 63
8 03/26/2014 18:01:55 -81.35, 137.94 98.29 03/26/2014 18:01:45 -81.36, 137.98 98.29 0.74 10
9 03/29/2014 13:36:14 -81.35,-155.71 99.36 03/29/2014 13:36:42 -81.35,-155.80 99.36 1.41 28




NCC Satellite Simultaneous Nadir Overpasses (SNOs) Prediction Service
